sat.trackr.live / text

‹ back to catalog

HULIANWANG DIGUI-144

NORAD 67442 · 2026-007H

PAYLOAD ACTIVE UNKNOWN

§ Identity

Operator
Country
PRC
Launch date
2026-01-13
Launch site
WSC
Launch vehicle
Mass (kg)
RCS (m²)

External: N2YO · Heavens-Above · Gunter

§ Orbital elements

Epoch: 2026-05-25T01:00:53.938080Z

Period
108.33 min
Inclination
50.0070°
Eccentricity
0.0000845
Mean motion
13.29328224 rev/d
Perigee alt
1,148.7 km
Apogee alt
1,149.9 km
Semi-major
7,527.4 km
B*
8.1753e-5
RAAN
168.5766°
Arg perigee
285.1326°
Mean anomaly
74.9453°
Rev number
1,771

§ Raw data

HULIANWANG DIGUI-1441 67442U 26007H   26145.04229095 -.00000086  00000+0  81753-4 0  99992 67442  50.0070 168.5766 0000845 285.1326  74.9453 13.29328224 17714

JSON: /api/v1/satellites/67442 · /tle

For live sub-satellite position, see the globe view (requires WebGL).

§ Visibility from observer

Set your observer location to see the next 7 days of passes ≥ 10°. The values pass through the URL so the page stays shareable.

No JS? Fill the form by hand. The geolocation button needs JavaScript.